Orbital Elements at Epoch 2459200.5 (2020-Dec-17.0) TDB
Reference: JPL 23 (heliocentric ecliptic J2000)
Element | Value | Uncertainty (1-sigma) | Units |
e | .06148938528128883 | 5.8082e-08 | |
a | 2.17813589656286 | 9.1429e-09 | au |
q | 2.044203659224101 | 1.2533e-07 | au |
i | 4.907691946425672 | 4.642e-06 | deg |
node | 265.9955883517659 | 6.6048e-05 | deg |
peri | 244.5157276730022 | 7.4052e-05 | deg |
M | 57.50387225224463 | 3.3575e-05 | deg |
tp | 2459012.948528732698 (2020-Jun-12.44852873) | 0.0001093 | TDB |
period | 1174.15622655904 3.21 | 7.3929e-06 2.024e-08 | d yr |
n | .3066031519970807 | 1.9305e-09 | deg/d |
Q | 2.312068133901619 | 9.7051e-09 | au |
|
| | Orbit Determination Parameters
Additional Information
|